Météo par heure à Paris

Ce jour, 30 Novembre, Lundi

Heure Température Précipitation Vent Pression Humidité
00:00 +1°C° 0 mm 0 m/s 765 mmHg 69%
01:00 +1°C° 0 mm 0 m/s 765 mmHg 70%
02:00 +1°C° 0 mm 0 m/s 765 mmHg 70%
03:00 +1°C° 0 mm 0 m/s 765 mmHg 70%
04:00 +1°C° 0 mm 0 m/s 765 mmHg 71%
05:00 +1°C° 0 mm 0 m/s 765 mmHg 71%
06:00 +1°C° 0 mm 0 m/s 766 mmHg 71%
07:00 +1°C° 0 mm 0 m/s 766 mmHg 69%
08:00 +3°C° 0 mm 1 m/s 766 mmHg 66%
09:00 +3°C° 0 mm 1 m/s 766 mmHg 64%
10:00 +5°C° 0 mm 1 m/s 766 mmHg 59%
11:00 +6°C° 0 mm 1 m/s 766 mmHg 54%
12:00 +7°C° 0 mm 1 m/s 766 mmHg 49%
13:00 +6°C° 0 mm 2 m/s 765 mmHg 50%
14:00 +6°C° 0 mm 2 m/s 765 mmHg 51%
15:00 +6°C° 0 mm 2 m/s 764 mmHg 52%
16:00 +6°C° 0 mm 2 m/s 764 mmHg 55%
17:00 +5°C° 0 mm 3 m/s 764 mmHg 58%
18:00 +5°C° 0 mm 3 m/s 763 mmHg 61%
19:00 +7°C° 0.1 mm 3 m/s 763 mmHg 68%
20:00 +6°C° 0.1 mm 4 m/s 762 mmHg 75%
21:00 +6°C° 0.1 mm 4 m/s 762 mmHg 82%
22:00 +7°C° 0.4 mm 4 m/s 761 mmHg 85%
23:00 +7°C° 0.4 mm 5 m/s 761 mmHg 88%

Demain, 1 Décembre, Mardi

Heure Température Précipitation Vent Pression Humidité
00:00 +8°C° 0.4 mm 5 m/s 760 mmHg 91%
01:00 +8°C° 0.3 mm 5 m/s 760 mmHg 86%
02:00 +8°C° 0.3 mm 5 m/s 759 mmHg 81%
03:00 +7°C° 0.3 mm 5 m/s 759 mmHg 76%
04:00 +6°C° 0 mm 5 m/s 759 mmHg 76%
05:00 +6°C° 0 mm 5 m/s 759 mmHg 75%
06:00 +5°C° 0 mm 5 m/s 760 mmHg 75%
07:00 +5°C° 0 mm 5 m/s 760 mmHg 75%
08:00 +5°C° 0 mm 5 m/s 760 mmHg 75%
09:00 +6°C° 0 mm 5 m/s 760 mmHg 75%
10:00 +5°C° 0 mm 6 m/s 760 mmHg 73%
11:00 +7°C° 0 mm 6 m/s 760 mmHg 71%
12:00 +8°C° 0 mm 7 m/s 760 mmHg 69%
13:00 +8°C° 0.1 mm 6 m/s 760 mmHg 67%
14:00 +8°C° 0.1 mm 6 m/s 759 mmHg 66%
15:00 +8°C° 0.1 mm 6 m/s 759 mmHg 65%
16:00 +8°C° 0 mm 6 m/s 759 mmHg 67%
17:00 +7°C° 0 mm 5 m/s 759 mmHg 70%
18:00 +7°C° 0 mm 5 m/s 760 mmHg 72%
19:00 +6°C° 0 mm 5 m/s 760 mmHg 73%
20:00 +6°C° 0 mm 5 m/s 760 mmHg 74%
21:00 +5°C° 0 mm 5 m/s 759 mmHg 76%
22:00 +5°C° 0 mm 5 m/s 759 mmHg 74%
23:00 +6°C° 0 mm 4 m/s 759 mmHg 73%

Après-demain, 2 Décembre, Mercredi

Heure Température Précipitation Vent Pression Humidité
00:00 +6°C° 0 mm 4 m/s 759 mmHg 72%
01:00 +6°C° 0.1 mm 4 m/s 759 mmHg 77%
02:00 +6°C° 0.1 mm 4 m/s 759 mmHg 82%
03:00 +6°C° 0.1 mm 4 m/s 759 mmHg 87%
04:00 +7°C° 0 mm 3 m/s 759 mmHg 88%
05:00 +7°C° 0 mm 3 m/s 759 mmHg 89%
06:00 +7°C° 0 mm 3 m/s 758 mmHg 90%
07:00 +7°C° 0 mm 2 m/s 758 mmHg 89%
08:00 +7°C° 0 mm 2 m/s 758 mmHg 88%
09:00 +7°C° 0 mm 2 m/s 758 mmHg 87%
10:00 +7°C° 0 mm 2 m/s 758 mmHg 83%
11:00 +8°C° 0 mm 2 m/s 758 mmHg 80%
12:00 +8°C° 0 mm 2 m/s 758 mmHg 76%
13:00 +8°C° 0 mm 2 m/s 757 mmHg 75%
14:00 +8°C° 0 mm 2 m/s 757 mmHg 74%
15:00 +8°C° 0 mm 2 m/s 757 mmHg 73%
16:00 +8°C° 0 mm 1 m/s 757 mmHg 75%
17:00 +7°C° 0 mm 1 m/s 757 mmHg 78%
18:00 +6°C° 0 mm 0 m/s 757 mmHg 80%
19:00 +6°C° 0.1 mm 0 m/s 756 mmHg 81%
20:00 +7°C° 0.1 mm 1 m/s 756 mmHg 83%
21:00 +7°C° 0.1 mm 1 m/s 756 mmHg 84%
22:00 +7°C° 0 mm 1 m/s 756 mmHg 85%
23:00 +7°C° 0 mm 1 m/s 755 mmHg 86%

3 Décembre, Jeudi

Heure Température Précipitation Vent Pression Humidité
00:00 +7°C° 0 mm 1 m/s 755 mmHg 87%
01:00 +5°C° 0 mm 2 m/s 754 mmHg 87%
02:00 +5°C° 0 mm 2 m/s 753 mmHg 86%
03:00 +5°C° 0 mm 2 m/s 752 mmHg 86%
04:00 +4°C° 0.1 mm 3 m/s 752 mmHg 85%
05:00 +4°C° 0.1 mm 3 m/s 751 mmHg 85%
06:00 +4°C° 0.1 mm 3 m/s 751 mmHg 85%
07:00 +4°C° 0.4 mm 3 m/s 750 mmHg 87%
08:00 +5°C° 0.4 mm 3 m/s 749 mmHg 88%
09:00 +6°C° 0.4 mm 2 m/s 749 mmHg 90%
10:00 +5°C° 0 mm 3 m/s 748 mmHg 87%
11:00 +7°C° 0 mm 3 m/s 747 mmHg 84%
12:00 +7°C° 0 mm 3 m/s 746 mmHg 80%
13:00 +7°C° 0.1 mm 3 m/s 745 mmHg 80%
14:00 +7°C° 0.1 mm 3 m/s 744 mmHg 79%
15:00 +7°C° 0.1 mm 3 m/s 743 mmHg 78%
16:00 +6°C° 0.3 mm 4 m/s 743 mmHg 79%
17:00 +6°C° 0.3 mm 4 m/s 742 mmHg 80%
18:00 +5°C° 0.3 mm 4 m/s 741 mmHg 81%
19:00 +5°C° 0.1 mm 4 m/s 740 mmHg 82%
20:00 +5°C° 0.1 mm 4 m/s 739 mmHg 84%
21:00 +5°C° 0.1 mm 4 m/s 738 mmHg 85%
22:00 +5°C° 0.2 mm 5 m/s 737 mmHg 86%
23:00 +5°C° 0.2 mm 5 m/s 736 mmHg 86%

4 Décembre, Vendredi

Heure Température Précipitation Vent Pression Humidité
00:00 +5°C° 0.2 mm 5 m/s 735 mmHg 87%
01:00 +5°C° 0.7 mm 5 m/s 734 mmHg 87%
02:00 +6°C° 0.7 mm 5 m/s 733 mmHg 86%
03:00 +6°C° 0.7 mm 5 m/s 732 mmHg 86%
04:00 +6°C° 0.1 mm 4 m/s 731 mmHg 85%
05:00 +5°C° 0.1 mm 4 m/s 731 mmHg 85%
06:00 +5°C° 0.1 mm 4 m/s 730 mmHg 84%
07:00 +5°C° 1.3 mm 3 m/s 730 mmHg 86%
08:00 +5°C° 1.3 mm 3 m/s 730 mmHg 88%
09:00 +6°C° 1.3 mm 2 m/s 729 mmHg 90%
10:00 +5°C° 1.4 mm 3 m/s 729 mmHg 90%
11:00 +5°C° 1.4 mm 3 m/s 729 mmHg 89%
12:00 +5°C° 1.4 mm 3 m/s 729 mmHg 88%
13:00 +4°C° 1.5 mm 4 m/s 730 mmHg 89%
14:00 +3°C° 1.5 mm 5 m/s 730 mmHg 90%
15:00 +3°C° 1.5 mm 6 m/s 730 mmHg 90%
16:00 +3°C° 0.7 mm 7 m/s 731 mmHg 86%
17:00 +3°C° 0.7 mm 7 m/s 731 mmHg 81%
18:00 +2°C° 0.7 mm 8 m/s 732 mmHg 77%
19:00 +3°C° 0.1 mm 7 m/s 732 mmHg 77%
20:00 +2°C° 0.1 mm 7 m/s 733 mmHg 77%
21:00 +2°C° 0.1 mm 7 m/s 733 mmHg 76%
22:00 +1°C° 0 mm 6 m/s 734 mmHg 78%
23:00 +1°C° 0 mm 6 m/s 734 mmHg 79%

5 Décembre, Samedi

Heure Température Précipitation Vent Pression Humidité
00:00 +1°C° 0 mm 6 m/s 734 mmHg 80%
01:00 +1°C° 0.1 mm 6 m/s 734 mmHg 83%
02:00 -1°C° 0.1 mm 6 m/s 734 mmHg 85%
03:00 -1°C° 0.1 mm 6 m/s 734 mmHg 88%
04:00 +1°C° 1 mm 6 m/s 734 mmHg 90%
05:00 +1°C° 1 mm 5 m/s 734 mmHg 92%
06:00 +1°C° 1 mm 5 m/s 734 mmHg 94%
07:00 +2°C° 0.6 mm 5 m/s 735 mmHg 93%
08:00 +3°C° 0.6 mm 4 m/s 735 mmHg 92%
09:00 +4°C° 0.6 mm 4 m/s 736 mmHg 91%
10:00 +4°C° 0.4 mm 4 m/s 736 mmHg 90%
11:00 +4°C° 0.4 mm 4 m/s 736 mmHg 89%
12:00 +4°C° 0.4 mm 4 m/s 736 mmHg 88%
13:00 +4°C° 0.3 mm 4 m/s 736 mmHg 88%
14:00 +5°C° 0.3 mm 4 m/s 737 mmHg 87%
15:00 +5°C° 0.3 mm 4 m/s 737 mmHg 86%
16:00 +5°C° 0.2 mm 4 m/s 737 mmHg 86%
17:00 +5°C° 0.2 mm 4 m/s 737 mmHg 86%
18:00 +5°C° 0.2 mm 4 m/s 737 mmHg 86%
19:00 +4°C° 0.1 mm 3 m/s 738 mmHg 86%
20:00 +4°C° 0.1 mm 3 m/s 738 mmHg 87%
21:00 +4°C° 0.1 mm 3 m/s 738 mmHg 87%
22:00 +4°C° 0 mm 3 m/s 739 mmHg 88%
23:00 +4°C° 0 mm 3 m/s 739 mmHg 88%
Voir plus

Nous avons besoin de votre consentement

Meteoprog et ses fournisseurs de services peuvent stocker et accéder à des données personnelles telles que des cookies, des identifiants d'appareils ou d'autres technologies similaires sur votre appareil et traiter ces données pour personnaliser le contenu et les publicités, ainsi que pour fournir des fonctionnalités de médias sociaux et analyser le trafic.

  • Stocker et/ou accéder à des informations sur votre appareil

    Des cookies, des identifiants d'appareils ou d'autres informations peuvent être stockés ou accessibles sur votre appareil aux fins indiquées ci-dessus.

  • Annonces et contenus personnalisés, mesure des annonces et des contenus, connaissance de l'audience et développement de produits

    Les annonces et le contenu peuvent être personnalisés en fonction d'un profil. D'autres données peuvent être ajoutées pour mieux personnaliser les annonces et le contenu. Les performances des publicités et du contenu peuvent être mesurées. Il est possible d'obtenir des informations sur le public qui a vu les publicités et le contenu. Ces données peuvent être utilisées pour développer ou améliorer l'expérience de l'utilisateur, les systèmes et les logiciels.

En cliquant sur "J'accepte", vous autorisez l'utilisation de cookies, des identifiants d'appareils, des balises web ou d'autres technologies similaires. Vos paramètres peuvent être modifiés dans le navigateur de votre appareil.

Dans certains cas, des intérêts légitimes peuvent être invoqués plutôt qu'un consentement. Vous pouvez en savoir plus à ce sujet dans notre Politique de confidentialité et de cookies.